Date String (YYYY-MM-DD hh:mm:ss) UTC,Instrument flags,Ambient pressure (hPa),Sample flow (lpm),Bypass flow (lpm),Sample temperature (°C),Ambient temperature (°C),ASC tube jacket temperature (°C),LED temperature (°C),Box temperature (°C),Sample RH (%),Span deviation,Mass concentration (μg/m³),Mass concentration (μg/m³),Mass concentration (μg/m³)
DateTimeUTC,F1_M11,P_M11,Q1_M11,Q2_M11,T1_M11,T2_M11,T3_M11,T4_M11,T5_M11,U1_M11,ZSPAN_M11,X0_M11,X2_M11,X1_M11
2021-12-16 17:00:00,,0821.5,5.00,0.00,23.6,22.9,00.0,32.5,25.5,07.7,0000.0,0013.80,0004.08,0002.27
2021-12-16 17:01:00,,0821.5,4.99,0.00,23.6,23.0,00.0,32.5,25.4,07.7,0000.0,0013.51,0004.09,0002.21
2021-12-16 17:02:00,,0821.6,4.99,0.00,23.6,23.0,00.0,32.5,25.5,07.7,0000.0,0014.33,0004.10,0002.14
2021-12-16 17:03:00,,0821.6,5.01,0.00,23.6,23.0,00.0,32.5,25.5,07.6,0000.0,0013.43,0004.15,0002.08
2021-12-16 17:04:00,,0821.5,5.01,0.00,23.7,23.0,00.0,32.5,25.5,07.6,0000.0,0013.54,0004.11,0002.05
2021-12-16 17:05:00,,0821.5,4.99,0.00,23.7,23.0,00.0,32.5,25.5,07.7,0000.0,0014.04,0004.06,0002.04
2021-12-16 17:06:00,,0821.4,5.01,0.00,23.7,23.0,00.0,32.6,25.5,07.8,0000.0,0014.38,0004.03,0002.04
2021-12-16 17:07:00,,0821.4,5.01,0.00,23.7,23.0,00.0,32.6,25.5,07.9,0000.0,0014.30,0003.96,0002.05
2021-12-16 17:08:00,,0821.5,5.00,0.00,23.7,23.0,00.0,32.6,25.5,07.8,0000.0,0014.81,0003.95,0002.05
2021-12-16 17:09:00,,0821.4,4.99,0.00,23.7,23.1,00.0,32.6,25.5,07.7,0000.0,0015.74,0003.93,0002.05
2021-12-16 17:10:00,,0821.4,5.01,0.00,23.7,23.1,00.0,32.6,25.5,07.7,0000.0,0015.53,0003.90,0002.06
2021-12-16 17:11:00,,0821.4,5.00,0.00,23.7,23.1,00.0,32.6,25.6,07.8,0000.0,0015.46,0003.88,0002.07
2021-12-16 17:12:00,,0821.4,5.00,0.00,23.8,23.1,00.0,32.6,25.6,07.8,0000.0,0015.42,0003.85,0002.07
2021-12-16 17:13:00,,0821.4,4.98,0.00,23.8,23.1,00.0,32.6,25.6,07.8,0000.0,0014.45,0003.81,0002.09
2021-12-16 17:14:00,,0821.5,5.01,0.00,23.8,23.1,00.0,32.7,25.6,07.8,0000.0,0014.66,0003.81,0002.12
2021-12-16 17:15:00,,0821.6,5.00,0.00,23.8,23.1,00.0,32.7,25.6,07.8,0000.0,0014.63,0003.73,0002.10
2021-12-16 17:16:00,,0821.6,5.00,0.00,23.8,23.1,00.0,32.7,25.6,07.8,0000.0,0013.95,0003.68,0002.09
2021-12-16 17:17:00,,0821.6,4.99,0.00,23.8,23.1,00.0,32.7,25.6,07.7,0000.0,0014.73,0003.69,0002.09
2021-12-16 17:18:00,,0821.5,5.01,0.00,23.8,23.2,00.0,32.7,25.6,07.8,0000.0,0015.13,0003.67,0002.08
2021-12-16 17:19:00,,0821.4,5.01,0.00,23.8,23.2,00.0,32.7,25.6,07.8,0000.0,0014.65,0003.67,0002.09
2021-12-16 17:20:00,,0821.4,4.99,0.00,23.8,23.2,00.0,32.7,25.7,07.8,0000.0,0015.56,0003.68,0002.10
2021-12-16 17:21:00,,0821.4,5.00,0.00,23.9,23.2,00.0,32.8,25.7,07.6,0000.0,0016.10,0003.73,0002.12
2021-12-16 17:22:00,,0821.5,5.00,0.00,23.9,23.2,00.0,32.8,25.7,07.7,0000.0,0016.29,0003.75,0002.14
2021-12-16 17:23:00,,0821.6,5.01,0.00,23.9,23.2,00.0,32.8,25.6,07.8,0000.0,0016.35,0003.74,0002.15
2021-12-16 17:24:00,,0821.5,5.00,0.00,23.9,23.2,00.0,32.8,25.7,07.9,0000.0,0016.72,0003.76,0002.15
2021-12-16 17:25:00,,0821.6,4.99,0.00,23.9,23.2,00.0,32.8,25.7,07.9,0000.0,0016.33,0003.73,0002.16
2021-12-16 17:26:00,,0821.6,5.01,0.00,23.9,23.2,00.0,32.8,25.7,07.8,0000.0,0016.23,0003.76,0002.18
2021-12-16 17:27:00,,0821.5,4.99,0.00,23.9,23.2,00.0,32.8,25.7,07.8,0000.0,0016.74,0003.84,0002.21
2021-12-16 17:28:00,,0821.4,5.00,0.00,23.9,23.2,00.0,32.8,25.7,07.7,0000.0,0015.83,0003.88,0002.22
2021-12-16 17:29:00,,0821.4,4.99,0.00,23.9,23.2,00.0,32.9,25.7,07.7,0000.0,0015.10,0003.91,0002.22
2021-12-16 17:30:00,,0821.4,4.99,0.00,24.0,23.3,00.0,32.9,25.8,07.8,0000.0,0014.48,0003.92,0002.21
2021-12-16 17:31:00,,0821.5,4.99,0.00,24.0,23.3,00.0,32.9,25.8,07.8,0000.0,0013.07,0003.92,0002.20
2021-12-16 17:32:00,,0821.6,5.01,0.00,24.0,23.3,00.0,32.9,25.8,07.7,0000.0,0012.85,0003.93,0002.21
2021-12-16 17:33:00,,0821.8,5.00,0.00,24.0,23.3,00.0,32.9,25.9,07.7,0000.0,0013.24,0003.96,0002.22
2021-12-16 17:34:00,,0821.6,5.00,0.00,24.0,23.3,00.0,32.9,25.9,07.6,0000.0,0013.57,0004.01,0002.22
2021-12-16 17:35:00,,0821.4,5.00,0.00,24.0,23.3,00.0,32.9,25.9,07.6,0000.0,0013.75,0004.02,0002.22
2021-12-16 17:36:00,,0821.3,5.01,0.00,24.0,23.4,00.0,32.9,25.9,07.7,0000.0,0014.39,0004.04,0002.21
2021-12-16 17:37:00,,0821.4,5.01,0.00,24.0,23.4,00.0,33.0,25.9,07.7,0000.0,0014.63,0004.08,0002.21
2021-12-16 17:38:00,,0821.4,4.99,0.00,24.1,23.4,00.0,33.0,26.0,07.7,0000.0,0014.34,0004.11,0002.21
2021-12-16 17:39:00,,0821.4,5.00,0.00,24.1,23.4,00.0,33.0,26.0,07.8,0000.0,0013.99,0004.02,0002.21
2021-12-16 17:40:00,,0821.2,5.01,0.00,24.1,23.4,00.0,33.0,26.0,07.8,0000.0,0014.19,0004.02,0002.24
2021-12-16 17:41:00,,0821.2,5.00,0.00,24.1,23.4,00.0,33.0,26.0,07.8,0000.0,0014.79,0004.02,0002.26
2021-12-16 17:42:00,,0821.3,5.00,0.00,24.1,23.4,00.0,33.0,26.0,07.8,0000.0,0015.74,0004.00,0002.25
2021-12-16 17:43:00,,0821.4,5.01,0.00,24.1,23.4,00.0,33.0,26.0,07.8,0000.0,0015.87,0003.99,0002.24
2021-12-16 17:44:00,,0821.4,4.98,0.00,24.1,23.4,00.0,33.0,26.0,07.7,0000.0,0016.19,0003.98,0002.21
2021-12-16 17:45:00,,0821.4,5.01,0.00,24.2,23.4,00.0,33.1,26.0,07.7,0000.0,0016.47,0003.92,0002.19
2021-12-16 17:46:00,,0821.4,4.99,0.00,24.2,23.5,00.0,33.1,26.0,07.8,0000.0,0016.56,0003.92,0002.17
2021-12-16 17:47:00,,0821.3,5.00,0.00,24.2,23.5,00.0,33.1,26.1,07.8,0000.0,0015.97,0003.93,0002.15
2021-12-16 17:48:00,,0821.3,4.99,0.00,24.2,23.5,00.0,33.1,26.1,07.7,0000.0,0016.29,0003.91,0002.15
2021-12-16 17:49:00,,0821.3,5.01,0.00,24.2,23.5,00.0,33.1,26.1,07.8,0000.0,0016.27,0003.89,0002.15
2021-12-16 17:50:00,,0821.3,4.99,0.00,24.2,23.5,00.0,33.1,26.1,07.7,0000.0,0016.56,0003.92,0002.12
2021-12-16 17:51:00,,0821.2,4.99,0.00,24.2,23.5,00.0,33.1,26.1,07.6,0000.0,0015.75,0003.92,0002.10
2021-12-16 17:52:00,,0821.2,5.01,0.00,24.2,23.5,00.0,33.1,26.1,07.6,0000.0,0015.41,0003.88,0002.06
2021-12-16 17:53:00,,0821.1,4.98,0.00,24.3,23.5,00.0,33.2,26.1,07.7,0000.0,0014.96,0003.92,0002.06
2021-12-16 17:54:00,,0821.1,5.02,0.00,24.3,23.5,00.0,33.2,26.2,07.7,0000.0,0015.43,0003.95,0002.05
2021-12-16 17:55:00,,0821.1,5.00,0.00,24.3,23.6,00.0,33.2,26.2,07.6,0000.0,0014.96,0003.93,0002.04
2021-12-16 17:56:00,,0821.0,5.00,0.00,24.3,23.6,00.0,33.2,26.2,07.6,0000.0,0014.69,0003.93,0002.04
2021-12-16 17:57:00,,0821.0,5.00,0.00,24.3,23.6,00.0,33.2,26.2,07.6,0000.0,0014.06,0003.92,0002.05
2021-12-16 17:58:00,,0821.0,5.01,0.00,24.3,23.6,00.0,33.2,26.3,07.5,0000.0,0013.79,0003.87,0002.05
2021-12-16 17:59:00,,0821.1,4.99,0.00,24.4,23.6,00.0,33.3,26.3,07.5,0000.0,0013.26,0003.85,0002.04
